STARLINK-5686, 55450

Orbit data source: Space-Track

STARLINK-5686, 55450 is a payload satellite owned by SpaceX/Seattle (US) in LEO that was launched on Thu, 02 Feb 2023 UTC via an FALCON 9 launch vehicle from the Air Force Eastern Test Range (AFETR). Payload-class satellites include a variety of spacecraft equipped with specific instruments for various scientific and technological missions. These include communications satellites like Starlink; space stations such as the ISS; scientific satellites like the Hubble; Earth observation satellites from companies like Planet Labs, Umbra, and HawkEye 360; GPS; miniature CubeSats for education and research; and military/defense satellites.

Loading next visibility...
Identifier
55450, 2023-015B
Orbit
LEO
Country
Flag of USUS
Related business
Manufacturer
SpaceX/Seattle
Mission
Operational Commercial Communications
Bus & Motor
STARLINK, Unknown motor
Mass
305 kg wet, ~290 kg dry
Launch date (UTC)
2023-02-02 (3 years ago)
Launch vehicle
FALCON 9
Launch site
Air Force Eastern Test Range (AFETR)
Object type
Payload
Rocket body
Debris
Shape & HBR
Box + 1 Pan, 10.1 m
Radar Cross Section
13.562 m², Large (>1 m²)

Expand to show TLE details & history
Last TLE update: 18 hours ago

TLE from 18 hours ago
0 STARLINK-5686
1 55450U 23015B   26035.28591486  .00001181  00000-0  10250-3 0  9991
2 55450  43.0025 147.9770 0001359 270.4072  89.6614 15.02536374166665
Epoch: 2026-02-04T06:51Z
TLE epoch observation values (Epoch: 2026-02-04T06:51:43.043Z)
Latitude
-0.00008°
Longitude
-89.40711°
Altitude
558.851 km
Speed
7.584 km/s
True Right ascension
09h 51m 54s
True Declination
0° 00' 00"
Sunlit
Object was in full shadow at epoch
Visualization orbit readout
Latitude
Unknown
Longitude
Unknown
Altitude
Unknown
Speed
Unknown
Apparent Right ascension
Unknown
Apparent Declination
Unknown
Sunlit
N/A
Visualization observer readout
Local Sidereal Time
03:07:02
Azimuth
Unknown
Elevation
Unknown
Doppler factor
Unknown
Orbital elements
Apogee altitude
561.945 km
Perigee altitude
560.059 km
Semi-major axis
6,939.139 km
Eccentricity
0.00014
Inclination
43.0025°
RAAN
147.977°
Arg. of periapsis
270.4072°
True anomaly
89.67697°
Mean anomaly
89.6614°
Eccentric anomaly
89.66919°
Mean motion
3.75478 °/min
Orbital period
95.88 mins
BSTAR
0.0001025
Loading maneuver chart data...
Computing Atmospheric mass density...
Loading historical data...
Loading historical data...
Loading historical data...
Loading historical data...
Loading historical data...
Loading historical data...
Loading historical data...

Documentation

Showing up to 5 results
|